Weather History for Milton, FL

Change the Weather History Date:

Tuesday, October 30, 2012

  Actual Average (KNSE) Record (KNSE)
Temperature  
Mean Temperature 50 °F -  
Max Temperature 66 °F 74 °F 86 °F (2000)
Min Temperature 37 °F 55 °F 37 °F (2008)
Degree Days  
Heating Degree Days 14    
Moisture  
Dew Point 32 °F    
Average Humidity 53    
Maximum Humidity 82    
Minimum Humidity 27    
Precipitation  
Precipitation 0.00 in - - ()
Sea Level Pressure  
Sea Level Pressure 29.96 in    
Wind  
Wind Speed 8 mph (NW)    
Max Wind Speed 17 mph    
Max Gust Speed 28 mph    
Visibility 10 miles    
Events      
Averages and records for this station are not official NWS values.
T = Trace of Precipitation, MM = Missing Value Source: NWS Daily Summary

Daily Weather History Graph

Daily Weather History Graph

Search for Another Location

Airport:

Trip Planner

Search our weather history database for the weather conditions in past years. The results will help you decide how hot, cold, wet, or windy it might be!

Date:

Astronomy

Oct. 30, 2012 Rise Set
Actual Time 7:01 AM CDT 6:01 PM CDT
Civil Twilight 6:36 AM CDT 6:26 PM CDT
Nautical Twilight 6:08 AM CDT 6:54 PM CDT
Astronomical Twilight 5:40 AM CDT 7:22 PM CDT
Moon 6:36 PM CDT (10/30) 7:43 AM CDT (10/30)
Length of Visible Light 11h 49m
Length of Day
10h 59m
Full, 99% of the Moon is Illuminated
Oct 30
Full
Nov 6
Last Quarter
Nov 13
New
Nov 20
First Quarter
Nov 28
Full

Hourly Weather History & Observations

Time (CDT) Temp. Windchill Dew Point Humidity Pressure Visibility Wind Dir Wind Speed Gust Speed Precip Events Conditions
1:56 AM 41.0 °F 35.8 °F 33.1 °F 73% 29.97 in 10.0 mi WNW 8.1 mph - N/A   Clear
2:56 AM 39.9 °F 34.5 °F 33.1 °F 77% 29.96 in 10.0 mi WNW 8.1 mph - N/A   Clear
3:56 AM 37.9 °F 32.7 °F 32.0 °F 79% 29.96 in 10.0 mi WNW 6.9 mph - N/A   Clear
4:56 AM 37.9 °F 32.7 °F 32.0 °F 79% 29.96 in 10.0 mi WNW 6.9 mph - N/A   Clear
5:56 AM 37.0 °F 33.3 °F 32.0 °F 82% 29.98 in 10.0 mi WNW 4.6 mph - N/A   Clear
6:56 AM 37.9 °F 32.7 °F 32.0 °F 79% 29.99 in 10.0 mi WNW 6.9 mph - N/A   Clear
7:56 AM 39.9 °F 35.1 °F 33.1 °F 77% 30.00 in 10.0 mi WNW 6.9 mph - N/A   Clear
8:56 AM 46.0 °F 41.9 °F 33.1 °F 61% 30.00 in 10.0 mi NW 8.1 mph 16.1 mph N/A   Clear
9:56 AM 53.1 °F - 28.9 °F 40% 29.99 in 10.0 mi NNW 16.1 mph 25.3 mph N/A   Clear
10:56 AM 57.9 °F - 28.0 °F 32% 29.99 in 10.0 mi NNW 13.8 mph - N/A   Clear
11:56 AM 60.1 °F - 27.0 °F 28% 29.97 in 10.0 mi NW 17.3 mph 27.6 mph N/A   Clear
12:56 PM 62.1 °F - 28.9 °F 29% 29.95 in 10.0 mi NW 9.2 mph 24.2 mph N/A   Clear
1:56 PM 64.0 °F - 30.0 °F 28% 29.92 in 10.0 mi NNW 15.0 mph 23.0 mph N/A   Clear
2:56 PM 64.9 °F - 30.0 °F 27% 29.91 in 10.0 mi NW 17.3 mph 26.5 mph N/A   Clear
3:56 PM 64.9 °F - 30.9 °F 28% 29.90 in 10.0 mi WNW 9.2 mph 20.7 mph N/A   Clear
4:56 PM 64.0 °F - 32.0 °F 30% 29.89 in 10.0 mi WNW 6.9 mph - N/A   Clear
5:56 PM 60.1 °F - 32.0 °F 35% 29.90 in 10.0 mi WNW 5.8 mph - N/A   Clear
6:56 PM 55.9 °F - 32.0 °F 40% 29.93 in 10.0 mi WNW 3.5 mph - N/A   Clear
7:56 PM 52.0 °F - 34.0 °F 50% 29.94 in 10.0 mi WNW 3.5 mph - N/A   Clear
8:56 PM 48.9 °F - 34.0 °F 56% 29.96 in 10.0 mi WNW 3.5 mph - N/A   Clear
9:56 PM 48.9 °F - 35.1 °F 59% 29.97 in 10.0 mi Variable 3.5 mph - N/A   Clear
10:56 PM 48.9 °F - 35.1 °F 59% 29.98 in 10.0 mi WNW 3.5 mph - N/A   Clear
11:56 PM 48.0 °F - 36.0 °F 63% 29.97 in 10.0 mi Calm Calm - N/A   Clear